{"data":{"norad_id":56101,"epoch":"2026-05-24T20:32:05.209440Z","epoch_age_seconds":90955,"freshness":"FRESH","line1":"1 56101U 23046J   26144.85561585  .00000670  00000+0  33885-4 0  9991","line2":"2 56101  43.0045  91.1053 0001313 267.6932  92.3770 15.27575206173686","mean_motion":15.27575206,"eccentricity":0.0001313,"inclination_deg":43.0045,"raan_deg":91.1053,"arg_perigee_deg":267.6932,"mean_anomaly_deg":92.377,"bstar":3.3885e-5,"rev_number":17368,"period_min":94.267044551651,"perigee_km":482.16257541861,"apogee_km":483.96432665705,"semimajor_km":6861.2004510378,"source":"CELESTRAK","updated_at":"2026-05-25T13:38:17.954324Z"}}